Flag for Germany Weather past 2 weeks in Hagen, North Rhine-Westphalia, Germany

Now
45 °F

Sunny.


Feels Like: 45 °F
Forecast: 36 / 50 °F
Wind: 2 mph from North

Location: Dortmund / Wickede

Current Time: Apr 27, 2015 at 9:37:55 PM

Latest Report: Apr 27, 2015 at 9:20 PM


Visibility: 10 mi

Pressure: 29.80 "Hg

Humidity: 76%

Dew point: 37 °F

Location of HagenLocation

Historic Weather in Hagen — Graph

°F

Hagen temperature yesterday

Maximum temperature yesterday: 63 °F (at 2:20 PM)
Minimum temperature yesterday: 52 °F (at 5:20 AM)
Average temperature yesterday: 56 °F

Past Weeks' High & Low Weather Summary

 TemperatureHumidityPressure
High73 °F (Apr 15, 4:20 PM)94% (Apr 27, 5:20 AM)30.45 "Hg (Apr 27, 5:20 AM)
Low34 °F (Apr 18, 5:20 AM)18% (Apr 21, 4:50 PM)29.62 "Hg (Apr 27, 5:20 AM)
Average53 °F61%30.10 "Hg
* Reported Apr 12 8:20 PM — Apr 27 8:20 PM, Hagen, Weather by CustomWeather, © 2015

Note: Actual official high and low records may vary slightly from our data, if they occured in-between our weather recording intervals... More about our weather records

Advertising

Hagen weather history for previous 24 hours

 ConditionsComfort  
Time TempWeatherWind HumidityBarometerVisibility
8:20 PM
Mon, Apr 27
46 °FSunny.6 mph71%29.77 "Hg10 mi
7:50 PM46 °FSunny.6 mph71%29.77 "Hg10 mi
7:20 PM48 °FOvercast.6 mph66%29.77 "HgN/A
6:50 PM48 °FOvercast.6 mph66%29.77 "HgN/A
6:20 PM48 °FOvercast.7 mph66%29.77 "HgN/A
5:50 PM48 °FOvercast.8 mph66%29.74 "HgN/A
5:20 PM48 °FOvercast.8 mph66%29.77 "HgN/A
4:50 PM48 °FOvercast.8 mph66%29.77 "HgN/A
4:20 PM46 °FOvercast.8 mph71%29.77 "HgN/A
3:50 PM48 °FOvercast.6 mph66%29.77 "HgN/A
3:20 PM46 °FPartly sunny.8 mph66%29.77 "HgN/A
2:50 PM46 °FPartly sunny.8 mph66%29.77 "HgN/A
2:20 PM46 °FPartly sunny.10 mph66%29.74 "HgN/A
1:50 PM46 °FPartly sunny.10 mph71%29.74 "HgN/A
1:20 PM45 °FPartly sunny.10 mph81%29.74 "HgN/A
12:50 PM45 °FDrizzle. Partly sunny.10 mph81%29.74 "HgN/A
12:20 PM45 °FPartly sunny.10 mph81%29.74 "HgN/A
11:50 AM43 °FDrizzle. Partly sunny.13 mph87%29.74 "Hg4 mi
11:20 AM43 °FDrizzle. Partly sunny.10 mph93%29.71 "Hg4 mi
10:50 AM43 °FPartly sunny.10 mph93%29.71 "Hg6 mi
10:20 AM43 °FPartly sunny.12 mph93%29.71 "Hg6 mi
9:50 AM43 °FDrizzle. Partly sunny.10 mph93%29.68 "Hg4 mi
9:20 AM45 °FDrizzle. Partly sunny.13 mph87%29.68 "Hg4 mi
8:50 AM45 °FDrizzle. Partly sunny.8 mph93%29.68 "Hg4 mi
8:20 AM45 °FDrizzle. Partly sunny.8 mph93%29.68 "Hg4 mi
7:50 AM45 °FDrizzle. Partly sunny.10 mph93%29.65 "Hg4 mi
7:20 AM46 °FDrizzle. Partly sunny.10 mph87%29.65 "Hg4 mi
6:50 AM46 °FDrizzle. Low clouds.12 mph93%29.62 "Hg4 mi
6:20 AM46 °FLight rain. Passing clouds.12 mph93%29.62 "Hg4 mi
5:20 AM48 °FLight rain. Fog.8 mph94%29.62 "Hg2 mi
10:50 PM
Sun, Apr 26
54 °FPassing clouds.5 mph82%29.65 "HgN/A
10:20 PM54 °FPassing clouds.3 mph82%29.68 "HgN/A
9:50 PM54 °FClear.3 mph82%29.68 "Hg10 mi
9:20 PM54 °FSunny.5 mph82%29.68 "Hg10 mi
Weather by CustomWeather, © 2015

See weather overviewHow to use our weather pages